Simultaneous Nadir Overpasses (SNOs) Predictions

Prediction of SNOs between NOAA-19 and NPP Satellite Orbit:

Table of predicted SNOs for the next 14.0 days since TLE Epoch: 2/14/2014
Index Date (NOAA-19) Time (NOAA-19) Lat,Lon (NOAA-19) SZA (NOAA-19 ) Date (NPP) Time (NPP) Lat,Lon (NPP) SZA (NPP ) Distance(km) Time Diff (sec)
1 02/20/2014 21:33:41 80.99, 162.73 95.72 02/20/2014 21:34:46 80.99, 162.65 95.70 1.36 65
2 02/20/2014 22:24:43 -80.99, -30.02 84.30 02/20/2014 22:25:31 -80.99, -30.01 84.32 0.28 48
3 02/20/2014 23:15:44 80.98, 137.57 95.65 02/20/2014 23:16:15 80.98, 137.63 95.62 1.16 31
4 02/21/2014 00:06:46 -80.98, -55.18 84.37 02/21/2014 00:07:00 -80.98, -55.03 84.40 2.55 14
5 02/21/2014 00:57:46 80.96, 112.78 95.52 02/21/2014 00:57:44 80.97, 112.61 95.54 2.92 2
6 02/21/2014
